| time (UTC) | temp F | wind direction | speed knots | gust knots | rain 1hr in | rain 24hr in | rain mn in | humidity % | barometer mb |
| 20260507064546 | 46 | 12 | 0.0 | 0.9 | 0.00 | 0.00 | 0.00 | 79 | 1017.4 |
| 20260507063046 | 46 | 12 | 0.9 | 3.5 | 0.00 | 0.00 | 0.00 | 79 | 1017.2 |
| 20260507061539 | 46 | 11 | 0.9 | 2.6 | 0.00 | 0.00 | 0.00 | 79 | 1017.1 |
| 20260507060033 | 46 | 11 | 0.9 | 2.6 | 0.00 | 0.00 | 0.00 | 79 | 1017.1 |
| 20260507054532 | 46 | 13 | 0.0 | 2.6 | 0.00 | 0.00 | 0.00 | 79 | 1017.1 |
| 20260507053035 | 47 | 13 | 0.0 | 1.7 | 0.00 | 0.00 | 0.00 | 78 | 1017.1 |
| 20260507051530 | 47 | 13 | 0.0 | 1.7 | 0.00 | 0.00 | 0.00 | 78 | 1016.9 |
| 20260507050032 | 47 | 13 | 0.0 | 0.9 | 0.00 | 0.00 | 0.00 | 76 | 1016.8 |
| 20260507044529 | 48 | 13 | 0.0 | 1.7 | 0.00 | 0.00 | 0.00 | 76 | 1016.7 |
| 20260507043031 | 48 | 14 | 0.0 | 2.6 | 0.00 | 0.00 | 0.00 | 75 | 1016.6 |
| 20260507041534 | 49 | 17 | 0.0 | 2.6 | 0.00 | 0.00 | 0.00 | 75 | 1016.6 |
| 20260507040027 | 49 | 22 | 0.0 | 2.6 | 0.00 | 0.00 | 0.00 | 75 | 1016.5 |
| 20260507034627 | 50 | 24 | 0.0 | 1.7 | 0.00 | 0.00 | 0.00 | 74 | 1016.4 |
| 20260507033025 | 50 | 24 | 0.0 | 1.7 | 0.00 | 0.00 | 0.00 | 73 | 1016.5 |
| 20260507031524 | 51 | 24 | 0.0 | 3.5 | 0.00 | 0.00 | 0.00 | 72 | 1016.4 |
| 20260507030024 | 51 | 74 | 0.0 | 1.7 | 0.00 | 0.00 | 0.00 | 72 | 1016.2 |
| 20260507024528 | 51 | 74 | 0.0 | 0.9 | 0.00 | 0.00 | 0.00 | 73 | 1015.8 |
| 20260507023025 | 52 | 74 | 0.0 | 0.0 | 0.00 | 0.00 | 0.00 | 72 | 1015.8 |
| 20260507021524 | 52 | 74 | 0.0 | 2.6 | 0.00 | 0.00 | 0.00 | 71 | 1015.7 |
| 20260507020026 | 53 | 86 | 0.0 | 1.7 | 0.00 | 0.00 | 0.00 | 72 | 1015.5 |
| 20260507014526 | 54 | 86 | 0.0 | 0.0 | 0.00 | 0.00 | 0.00 | 71 | 1015.3 |
| 20260507013023 | 54 | 86 | 0.0 | 0.0 | 0.00 | 0.00 | 0.00 | 70 | 1015.2 |
| 20260507011523 | 55 | 86 | 0.0 | 0.9 | 0.00 | 0.00 | 0.00 | 70 | 1015.0 |
| 20260507010032 | 57 | 86 | 0.9 | 3.5 | 0.00 | 0.00 | 0.00 | 67 | 1015.1 |
| 20260507004525 | 57 | 59 | 1.7 | 4.3 | 0.00 | 0.00 | 0.00 | 60 | 1014.9 |
| 20260507003022 | 57 | 88 | 0.9 | 2.6 | 0.00 | 0.00 | 0.00 | 65 | 1015.0 |
| 20260507001528 | 58 | 88 | 1.7 | 6.1 | 0.00 | 0.00 | 0.00 | 62 | 1014.9 |
| 20260507000027 | 58 | 76 | 4.3 | 7.8 | 0.00 | 0.00 | 0.00 | 56 | 1014.8 |
| 20260506234542 | 58 | 85 | 5.2 | 9.6 | 0.00 | 0.00 | 0.00 | 57 | 1014.8 |
| 20260506233022 | 59 | 58 | 6.1 | 9.6 | 0.00 | 0.00 | 0.00 | 56 | 1014.7 |
| 20260506231521 | 59 | 61 | 4.3 | 11.3 | 0.00 | 0.00 | 0.00 | 55 | 1014.8 |
| 20260506230019 | 59 | 57 | 2.6 | 8.7 | 0.00 | 0.00 | 0.00 | 60 | 1014.5 |
| 20260506224526 | 58 | 40 | 4.3 | 12.2 | 0.00 | 0.00 | 0.00 | 60 | 1014.1 |
| 20260506223021 | 58 | 82 | 4.3 | 12.2 | 0.00 | 0.00 | 0.00 | 60 | 1013.8 |
| 20260506221517 | 58 | 19 | 6.1 | 11.3 | 0.00 | 0.00 | 0.00 | 63 | 1013.4 |
| 20260506220030 | 58 | 80 | 6.1 | 11.3 | 0.00 | 0.00 | 0.00 | 63 | 1013.5 |
| 20260506214518 | 58 | 38 | 4.3 | 11.3 | 0.00 | 0.00 | 0.00 | 63 | 1013.9 |
| 20260506213017 | 58 | 57 | 3.5 | 11.3 | 0.00 | 0.00 | 0.00 | 64 | 1013.9 |
| 20260506211520 | 57 | 27 | 5.2 | 10.4 | 0.00 | 0.00 | 0.00 | 64 | 1014.1 |
| 20260506210015 | 57 | 28 | 3.5 | 11.3 | 0.00 | 0.00 | 0.00 | 63 | 1014.1 |
| 20260506204516 | 57 | 81 | 5.2 | 10.4 | 0.00 | 0.00 | 0.00 | 64 | 1014.6 |
| 20260506203015 | 58 | 66 | 8.7 | 11.3 | 0.00 | 0.00 | 0.00 | 62 | 1014.6 |
| 20260506201515 | 58 | 17 | 6.1 | 9.6 | 0.00 | 0.00 | 0.00 | 62 | 1014.9 |
| 20260506200012 | 58 | 28 | 6.1 | 13.0 | 0.00 | 0.00 | 0.00 | 64 | 1015.0 |
| 20260506194511 | 56 | 62 | 6.1 | 9.6 | 0.00 | 0.00 | 0.00 | 64 | 1015.3 |
| 20260506193010 | 57 | 71 | 4.3 | 11.3 | 0.00 | 0.00 | 0.00 | 65 | 1015.6 |
| 20260506191508 | 57 | 67 | 6.1 | 10.4 | 0.00 | 0.00 | 0.00 | 67 | 1015.5 |
| 20260506190007 | 56 | 24 | 4.3 | 11.3 | 0.00 | 0.00 | 0.00 | 65 | 1015.6 |
| 20260506184505 | 55 | 23 | 5.2 | 12.2 | 0.00 | 0.00 | 0.00 | 68 | 1015.6 |
| 20260506183005 | 54 | 54 | 6.1 | 11.3 | 0.00 | 0.00 | 0.00 | 65 | 1015.7 |
| 20260506181503 | 55 | 55 | 6.1 | 13.9 | 0.00 | 0.00 | 0.00 | 66 | 1016.1 |
| 20260506180113 | 54 | 19 | 4.3 | 13.9 | 0.00 | 0.00 | 0.00 | 68 | 1016.3 |
| 20260506174556 | 54 | 19 | 5.2 | 13.0 | 0.00 | 0.00 | 0.00 | 70 | 1016.5 |
| 20260506173121 | 53 | 9 | 3.5 | 9.6 | 0.00 | 0.00 | 0.00 | 72 | 1017.0 |
| 20260506171556 | 52 | 37 | 4.3 | 10.4 | 0.00 | 0.00 | 0.00 | 72 | 1017.1 |
| 20260506170055 | 52 | 58 | 7.0 | 11.3 | 0.00 | 0.00 | 0.00 | 72 | 1016.9 |
| 20260506164547 | 52 | 22 | 7.8 | 13.9 | 0.00 | 0.00 | 0.00 | 73 | 1016.6 |
| 20260506163045 | 51 | 355 | 6.1 | 13.0 | 0.00 | 0.00 | 0.00 | 75 | 1016.2 |
| 20260506161544 | 51 | 49 | 7.0 | 12.2 | 0.00 | 0.00 | 0.00 | 73 | 1015.8 |
| 20260506160050 | 51 | 61 | 7.0 | 13.0 | 0.00 | 0.00 | 0.00 | 72 | 1015.8 |
| 20260506154538 | 51 | 86 | 8.7 | 16.5 | 0.00 | 0.00 | 0.00 | 76 | 1015.4 |
| 20260506153037 | 51 | 101 | 8.7 | 13.0 | 0.00 | 0.00 | 0.00 | 75 | 1015.4 |
| 20260506151536 | 50 | 52 | 8.7 | 13.0 | 0.00 | 0.00 | 0.00 | 76 | 1015.7 |
| 20260506150034 | 50 | 59 | 7.8 | 13.0 | 0.00 | 0.00 | 0.00 | 76 | 1015.9 |
| 20260506144532 | 49 | 12 | 7.0 | 12.2 | 0.00 | 0.00 | 0.00 | 79 | 1015.3 |
| 20260506143035 | 49 | 44 | 7.0 | 13.9 | 0.00 | 0.00 | 0.00 | 79 | 1015.2 |
| 20260506141530 | 49 | 44 | 7.8 | 14.8 | 0.00 | 0.00 | 0.00 | 80 | 1014.8 |
| 20260506140029 | 48 | 88 | 7.0 | 13.0 | 0.00 | 0.00 | 0.00 | 83 | 1014.6 |
| 20260506134526 | 47 | 39 | 4.3 | 12.2 | 0.00 | 0.00 | 0.00 | 83 | 1015.2 |
| 20260506133024 | 47 | 35 | 7.0 | 13.0 | 0.00 | 0.00 | 0.00 | 84 | 1015.4 |
| 20260506131539 | 47 | 46 | 6.1 | 14.8 | 0.00 | 0.00 | 0.00 | 84 | 1015.2 |
| 20260506130033 | 47 | 42 | 3.5 | 10.4 | 0.00 | 0.00 | 0.00 | 84 | 1015.0 |
| 20260506124518 | 47 | 43 | 5.2 | 13.0 | 0.00 | 0.00 | 0.00 | 83 | 1014.8 |
| 20260506123018 | 47 | 21 | 6.1 | 12.2 | 0.00 | 0.01 | 0.00 | 83 | 1014.9 |
| 20260506121515 | 46 | 34 | 3.5 | 13.9 | 0.00 | 0.01 | 0.00 | 83 | 1014.4 |
| 20260506120017 | 46 | 19 | 4.3 | 9.6 | 0.00 | 0.01 | 0.00 | 83 | 1014.1 |
| 20260506114511 | 46 | 26 | 6.1 | 14.8 | 0.00 | 0.01 | 0.00 | 82 | 1014.0 |
| 20260506113009 | 47 | 360 | 6.1 | 13.0 | 0.00 | 0.01 | 0.00 | 82 | 1013.7 |
| 20260506111509 | 47 | 5 | 6.1 | 9.6 | 0.00 | 0.01 | 0.00 | 83 | 1013.5 |
| 20260506110006 | 47 | 55 | 3.5 | 7.8 | 0.00 | 0.01 | 0.00 | 81 | 1013.4 |
| 20260506104504 | 47 | 69 | 7.0 | 12.2 | 0.00 | 0.01 | 0.00 | 81 | 1013.0 |
| 20260506103003 | 47 | 75 | 3.5 | 11.3 | 0.00 | 0.02 | 0.00 | 83 | 1012.3 |
| 20260506101601 | 47 | 89 | 4.3 | 12.2 | 0.00 | 0.02 | 0.00 | 82 | 1012.4 |
| 20260506100057 | 47 | 68 | 7.0 | 12.2 | 0.00 | 0.02 | 0.00 | 83 | 1011.6 |
| 20260506094621 | 47 | 76 | 6.1 | 12.2 | 0.00 | 0.02 | 0.00 | 83 | 1011.2 |
| 20260506093054 | 47 | 76 | 7.0 | 13.0 | 0.00 | 0.04 | 0.00 | 84 | 1010.8 |
| 20260506091553 | 47 | 88 | 8.7 | 12.2 | 0.00 | 0.04 | 0.00 | 85 | 1010.7 |
| 20260506090050 | 47 | 46 | 6.1 | 11.3 | 0.00 | 0.04 | 0.00 | 86 | 1011.2 |
| 20260506084547 | 47 | 59 | 5.2 | 8.7 | 0.00 | 0.04 | 0.00 | 87 | 1011.0 |
| 20260506083042 | 47 | 46 | 2.6 | 10.4 | 0.00 | 0.42 | 0.00 | 88 | 1010.8 |
| 20260506081538 | 47 | 23 | 5.2 | 10.4 | 0.00 | 0.42 | 0.00 | 89 | 1010.4 |
| 20260506073033 | 47 | 28 | 4.3 | 12.2 | 0.00 | 0.45 | 0.00 | 90 | 1010.1 |
| 20260506071534 | 47 | 42 | 6.1 | 15.6 | 0.00 | 0.45 | 0.00 | 89 | 1010.1 |